| time (UTC) | temp C | wind direction | speed KPH | gust KPH | rain 1hr cm | rain 24hr cm | rain mn cm | humidity % | barometer mb |
| 20260509054603 | 7 | 110 | 0.0 | 4.8 | 0.00 | 0.03 | 0.00 | 88 | 1005.9 |
| 20260509053059 | 8 | 110 | 0.0 | 6.4 | 0.00 | 0.03 | 0.00 | 87 | 1006.1 |
| 20260509051600 | 8 | 174 | 0.0 | 3.2 | 0.00 | 0.03 | 0.00 | 87 | 1006.2 |
| 20260509050136 | 8 | 174 | 1.6 | 4.8 | 0.00 | 0.03 | 0.00 | 86 | 1006.3 |
| 20260509044603 | 8 | 189 | 1.6 | 8.0 | 0.00 | 0.03 | 0.00 | 86 | 1006.5 |
| 20260509043059 | 8 | 84 | 0.0 | 6.4 | 0.00 | 0.03 | 0.00 | 85 | 1006.5 |
| 20260509041559 | 8 | 84 | 1.6 | 6.4 | 0.00 | 0.03 | 0.00 | 84 | 1006.7 |
| 20260509034559 | 9 | 178 | 3.2 | 9.7 | 0.00 | 0.03 | 0.03 | 82 | 1007.1 |
| 20260509033100 | 9 | 125 | 0.0 | 9.7 | 0.00 | 0.03 | 0.03 | 81 | 1007.1 |
| 20260509031559 | 10 | 101 | 1.6 | 9.7 | 0.00 | 0.03 | 0.03 | 80 | 1007.3 |
| 20260509030100 | 10 | 153 | 3.2 | 11.3 | 0.00 | 0.03 | 0.03 | 78 | 1007.5 |
| 20260509024601 | 10 | 161 | 0.0 | 19.3 | 0.00 | 0.03 | 0.03 | 78 | 1007.7 |
| 20260509023105 | 10 | 158 | 0.0 | 16.1 | 0.00 | 0.03 | 0.03 | 77 | 1007.6 |
| 20260509021600 | 10 | 143 | 3.2 | 19.3 | 0.00 | 0.03 | 0.03 | 75 | 1007.7 |
| 20260509020100 | 10 | 229 | 4.8 | 14.5 | 0.00 | 0.03 | 0.03 | 73 | 1007.6 |
| 20260509014600 | 10 | 91 | 0.0 | 4.8 | 0.00 | 0.03 | 0.03 | 69 | 1007.4 |
| 20260509013103 | 11 | 132 | 1.6 | 4.8 | 0.00 | 0.03 | 0.03 | 66 | 1007.3 |
| 20260509011600 | 11 | 80 | 1.6 | 9.7 | 0.00 | 0.03 | 0.03 | 63 | 1007.2 |
| 20260509004601 | 12 | 117 | 1.6 | 6.4 | 0.00 | 0.03 | 0.03 | 61 | 1006.9 |
| 20260509003106 | 12 | 71 | 0.0 | 4.8 | 0.00 | 0.03 | 0.03 | 59 | 1006.8 |
| 20260509001600 | 13 | 181 | 0.0 | 12.9 | 0.00 | 0.03 | 0.03 | 57 | 1006.7 |
| 20260509000115 | 13 | 75 | 4.8 | 12.9 | 0.00 | 0.03 | 0.03 | 56 | 1006.7 |
| 20260508234601 | 13 | 92 | 1.6 | 11.3 | 0.00 | 0.03 | 0.03 | 56 | 1006.8 |
| 20260508233104 | 14 | 137 | 1.6 | 11.3 | 0.00 | 0.03 | 0.03 | 55 | 1006.7 |
| 20260508231600 | 14 | 85 | 1.6 | 14.5 | 0.00 | 0.03 | 0.03 | 54 | 1006.6 |
| 20260508230108 | 14 | 96 | 1.6 | 9.7 | 0.00 | 0.03 | 0.03 | 53 | 1006.6 |
| 20260508224600 | 13 | 34 | 1.6 | 6.4 | 0.00 | 0.03 | 0.03 | 47 | 1006.7 |
| 20260508223100 | 13 | 336 | 1.6 | 8.0 | 0.00 | 0.03 | 0.03 | 42 | 1006.8 |
| 20260508221606 | 15 | 349 | 3.2 | 6.4 | 0.00 | 0.03 | 0.03 | 38 | 1007.1 |
| 20260508220100 | 14 | 350 | 1.6 | 8.0 | 0.00 | 0.03 | 0.03 | 41 | 1007.1 |
| 20260508214501 | 13 | 356 | 0.0 | 8.0 | 0.00 | 0.03 | 0.03 | 44 | 1007.2 |
| 20260508213003 | 13 | 335 | 0.0 | 6.4 | 0.00 | 0.03 | 0.03 | 38 | 1007.2 |
| 20260508211505 | 14 | 73 | 1.6 | 16.1 | 0.00 | 0.03 | 0.03 | 39 | 1007.2 |
| 20260508210006 | 15 | 349 | 3.2 | 8.0 | 0.00 | 0.03 | 0.03 | 39 | 1007.3 |
| 20260508204502 | 14 | 20 | 0.0 | 6.4 | 0.00 | 0.03 | 0.03 | 37 | 1007.6 |
| 20260508203003 | 14 | 322 | 3.2 | 8.0 | 0.00 | 0.03 | 0.03 | 32 | 1007.9 |
| 20260508201501 | 14 | 297 | 3.2 | 8.0 | 0.00 | 0.03 | 0.03 | 36 | 1008.1 |
| 20260508200003 | 14 | 24 | 3.2 | 9.7 | 0.00 | 0.03 | 0.03 | 35 | 1008.3 |
| 20260508194502 | 14 | 359 | 3.2 | 9.7 | 0.00 | 0.03 | 0.03 | 35 | 1008.5 |
| 20260508193002 | 14 | 312 | 4.8 | 9.7 | 0.00 | 0.03 | 0.03 | 36 | 1008.7 |
| 20260508191501 | 13 | 358 | 3.2 | 12.9 | 0.00 | 0.03 | 0.03 | 36 | 1009.0 |
| 20260508190005 | 13 | 360 | 4.8 | 0.0 | 20.88 | 0.00 | 0.03 | 35 | 1009.1 |
| 20260508184505 | 14 | 322 | 3.2 | 8.0 | 0.00 | 0.03 | 0.03 | 39 | 1009.3 |
| 20260508183002 | 13 | 321 | 3.2 | 9.7 | 0.00 | 0.03 | 0.03 | 43 | 1009.5 |
| 20260508181502 | 13 | 306 | 1.6 | 8.0 | 0.00 | 0.03 | 0.03 | 45 | 1009.9 |
| 20260508180002 | 13 | 328 | 4.8 | 9.7 | 0.00 | 0.03 | 0.03 | 46 | 1010.2 |
| 20260508174502 | 12 | 352 | 3.2 | 11.3 | 0.00 | 0.03 | 0.03 | 50 | 1010.3 |
| 20260508173005 | 12 | 321 | 4.8 | 9.7 | 0.00 | 0.03 | 0.03 | 53 | 1010.6 |
| 20260508171505 | 12 | 302 | 3.2 | 11.3 | 0.00 | 0.03 | 0.03 | 58 | 1010.7 |
| 20260508170003 | 12 | 278 | 3.2 | 9.7 | 0.00 | 0.03 | 0.03 | 52 | 1010.9 |
| 20260508164502 | 12 | 338 | 4.8 | 9.7 | 0.00 | 0.03 | 0.03 | 54 | 1010.9 |
| 20260508163003 | 11 | 322 | 1.6 | 9.7 | 0.00 | 0.03 | 0.03 | 49 | 1010.9 |
| 20260508161503 | 11 | 276 | 1.6 | 6.4 | 0.00 | 0.03 | 0.03 | 55 | 1011.1 |
| 20260508160003 | 11 | 276 | 0.0 | 6.4 | 0.00 | 0.03 | 0.03 | 62 | 1011.3 |
| 20260508154503 | 11 | 276 | 0.0 | 6.4 | 0.00 | 0.03 | 0.03 | 63 | 1011.2 |
| 20260508153003 | 10 | 278 | 1.6 | 8.0 | 0.00 | 0.03 | 0.03 | 66 | 1011.2 |
| 20260508151502 | 10 | 304 | 1.6 | 4.8 | 0.00 | 0.03 | 0.03 | 63 | 1011.2 |
| 20260508150007 | 10 | 304 | 0.0 | 4.8 | 0.00 | 0.03 | 0.03 | 64 | 1011.3 |
| 20260508144503 | 10 | 296 | 1.6 | 6.4 | 0.00 | 0.03 | 0.03 | 64 | 1011.4 |
| 20260508143005 | 9 | 297 | 1.6 | 6.4 | 0.00 | 0.03 | 0.03 | 63 | 1011.5 |
| 20260508141503 | 9 | 269 | 0.0 | 4.8 | 0.00 | 0.03 | 0.03 | 65 | 1011.5 |
| 20260508140003 | 9 | 235 | 1.6 | 6.4 | 0.00 | 0.03 | 0.03 | 70 | 1011.6 |
| 20260508134502 | 9 | 287 | 0.0 | 4.8 | 0.00 | 0.03 | 0.03 | 70 | 1011.6 |
| 20260508133002 | 9 | 269 | 1.6 | 6.4 | 0.00 | 0.03 | 0.03 | 69 | 1011.6 |
| 20260508131503 | 8 | 288 | 1.6 | 6.4 | 0.00 | 0.03 | 0.03 | 72 | 1011.4 |
| 20260508130003 | 8 | 252 | 0.0 | 4.8 | 0.00 | 0.03 | 0.03 | 72 | 1011.4 |
| 20260508124504 | 8 | 192 | 1.6 | 6.4 | 0.00 | 0.03 | 0.03 | 73 | 1011.3 |
| 20260508123003 | 8 | 191 | 1.6 | 4.8 | 0.00 | 0.03 | 0.03 | 78 | 1011.1 |
| 20260508121503 | 7 | 191 | 0.0 | 3.2 | 0.00 | 0.03 | 0.03 | 81 | 1011.1 |
| 20260508120004 | 6 | 191 | 0.0 | 3.2 | 0.00 | 0.03 | 0.03 | 86 | 1011.0 |
| 20260508114503 | 5 | 191 | 1.6 | 6.4 | 0.00 | 0.03 | 0.03 | 91 | 1011.1 |
| 20260508113003 | 3 | 191 | 0.0 | 0.0 | 0.00 | 0.03 | 0.03 | 92 | 1010.9 |
| 20260508111503 | 3 | 191 | 0.0 | 0.0 | 0.00 | 0.03 | 0.03 | 93 | 1010.8 |
| 20260508110004 | 2 | 191 | 0.0 | 0.0 | 0.00 | 0.03 | 0.03 | 92 | 1010.7 |
| 20260508104503 | 1 | 191 | 0.0 | 0.0 | 0.00 | 0.03 | 0.03 | 92 | 1010.8 |
| 20260508103011 | 1 | 191 | 0.0 | 0.0 | 0.00 | 0.03 | 0.03 | 91 | 1010.7 |
| 20260508101506 | 2 | 191 | 0.0 | 0.0 | 0.00 | 0.03 | 0.03 | 91 | 1010.7 |
| 20260508100006 | 2 | 191 | 0.0 | 0.0 | 0.00 | 0.03 | 0.03 | 90 | 1010.8 |
| 20260508094503 | 2 | 191 | 0.0 | 0.0 | 0.00 | 0.03 | 0.03 | 90 | 1010.8 |
| 20260508093005 | 2 | 191 | 0.0 | 0.0 | 0.00 | 0.03 | 0.03 | 89 | 1010.8 |
| 20260508091506 | 3 | 191 | 0.0 | 1.6 | 0.00 | 0.03 | 0.03 | 88 | 1010.8 |
| 20260508090006 | 3 | 191 | 0.0 | 0.0 | 0.00 | 0.03 | 0.03 | 86 | 1010.9 |
| 20260508084504 | 4 | 191 | 0.0 | 0.0 | 0.00 | 0.03 | 0.03 | 85 | 1010.8 |
| 20260508083003 | 5 | 191 | 0.0 | 3.2 | 0.00 | 0.03 | 0.03 | 85 | 1010.7 |
| 20260508081505 | 5 | 162 | 3.2 | 6.4 | 0.00 | 0.03 | 0.03 | 85 | 1010.5 |
| 20260508080005 | 5 | 162 | 1.6 | 6.4 | 0.00 | 0.03 | 0.03 | 86 | 1010.7 |
| 20260508074504 | 5 | 162 | 0.0 | 3.2 | 0.00 | 0.03 | 0.03 | 87 | 1010.5 |
| 20260508073003 | 5 | 162 | 0.0 | 0.0 | 0.00 | 0.03 | 0.03 | 87 | 1010.6 |
| 20260508071506 | 5 | 162 | 0.0 | 0.0 | 0.00 | 0.03 | 0.03 | 86 | 1010.9 |
| 20260508070006 | 5 | 162 | 0.0 | 3.2 | 0.00 | 0.03 | 0.03 | 86 | 1010.8 |
| 20260508064505 | 5 | 162 | 0.0 | 4.8 | 0.00 | 0.03 | 0.03 | 86 | 1011.1 |
| 20260508063006 | 5 | 162 | 0.0 | 0.0 | 0.00 | 0.03 | 0.03 | 85 | 1011.4 |
| 20260508061507 | 5 | 162 | 0.0 | 1.6 | 0.00 | 0.03 | 0.03 | 84 | 1011.4 |
| 20260508060005 | 5 | 162 | 0.0 | 3.2 | 0.03 | 0.03 | 0.03 | 87 | 1011.7 |